Find Starlink 31586

NORAD ID: 59205 Int'l Des: 2024-046 Owner: SPXS Country: US Constellation: starlink operational
LEOCIRCULAR

Live-Position

3D-Globus wird geladen...

Über Starlink 31586

Beschreibung wird geladen...

Nächste Überflüge

Passes for default location (London). Set your location on the main map for personalized predictions.

Höhenverlauf

Loading altitude history...

Zweizeiliger Elementsatz

1 59205U 24046E 26120.83589736 -.00001707 00000-0 -45511-4 0 9994
2 59205 53.1608 273.1030 0000909 78.9389 281.1714 15.30207969121037
Epoch: 30. Apr. 2026 • Age: 24 hours

Aktueller Status

Höhe 479.3 km
Geschwindigkeit 7.63 km/s
Subsatellitenpunkt 44.88°N, 159.01°E
Startdatum 11. März 2024
Alter 2.1 years
Typ internet

Technische Details

Klassifizierung Payload
Masse 730.00 kg
Trockenmasse 700.00 kg
Gesamtmasse 730.00 kg
Länge 0.30 m
Durchmesser 4.10 m
Spannweite 29.00 m
Form Box + pan
Hersteller SPXS
Bus-Typ Starlink V2M
Phasenstatus In Orbit
Besitzer/Staat SPXS/US

Most Searched